Regional Weather Roundup
Issued by NWS

Home | Current Version | Previous Version | Text Only | Print | Product List | Glossary Off
Versions: 1 2 3 4 5 6 7 8 9 10 11 12 13 14 15 16 17 18 19 20 21 22 23 24 25 26 27 28 29 30 31 32 33 34 35 36 37 38 39 40 41 42 43 44 45 46 47 48 49 50

000
ASUS44 KMEG 270210
RWRTN
TENNESSEE HOURLY STATE WEATHER ROUNDUP
NATIONAL WEATHER SERVICE MEMPHIS TN
900 PM CDT WED JUL 26 2017

TNZ002-004-019-021-049-052-054-088>092-270300-
WEST TENNESSEE

CITY           SKY/WX    TMP DP  RH WIND       PRES   REMARKS
MEMPHIS INTL   PTCLDY    85  75  72 SW3       30.04R HX  93
JACKSON        MOCLDY    84  78  82 SW6       30.04R HX  95
SOMERVILLE       N/A     82  75  78 CALM      30.03R
COVINGTON      CLEAR     84  75  74 CALM      30.03R HX  92
UNION CITY       N/A     82  75  78 S3        30.01R
BOLIVAR        CLEAR     81  73  78 CALM      30.04R
PARIS          CLEAR     81  79  94 CALM      30.03R
HUNTINGDON     CLEAR     82  77  83 CALM      30.03R HX  91
LEXINGTON      MOCLDY    79  73  83 CALM      30.03S
SAVANNAH       PTCLDY    77  73  88 CALM      30.03R
$$

TNZ008-025-027-028-033-062-065-066-270300-
NORTH MIDDLE TENNESSEE

CITY           SKY/WX    TMP DP  RH WIND       PRES   REMARKS
NASHVILLE      CLOUDY    84  71  65 S5        30.04S
PORTLAND         N/A     82  77  83 S3        30.03F HX  91
CLARKSVILLE    CLOUDY    83  74  74 CALM      30.03R
SMYRNA         CLEAR     81  75  82 S3        30.05R
COOKEVILLE     CLEAR     77  75  94 CALM      30.07R
GALLATIN       CLEAR     81  79  94 CALM      30.05F
CROSSVILLE     MOCLDY    79  72  79 CALM      30.14R
$$

TNZ061-075-076-078-094-096-097-270300-
SOUTH MIDDLE TENNESSEE

CITY           SKY/WX    TMP DP  RH WIND       PRES   REMARKS
FAYETTEVILLE   CLEAR     84  75  74 S5        30.07R HX  92
TULLAHOMA      CLEAR     81  73  78 CALM      30.09S
WINCHESTER     CLEAR     81  73  78 CALM      30.08S
MCMINNVILLE    CLEAR     79  79 100 CALM      30.08S
COLUMBIA       MOCLDY    82  72  69 MISG      30.03S
SHELBYVILLE    CLEAR     77  77 100 E3        30.06R
$$

TNZ017-018-042-046-047-270300-
NORTHEAST TENNESSEE

CITY           SKY/WX    TMP DP  RH WIND       PRES   REMARKS
TRI CITIES     CLEAR     76  67  73 CALM      30.10R
ELIZABETHTON   PTCLDY    72  68  88 CALM      30.12R
$$

TNZ012-013-036-069-073-074-270300-
CENTRAL EAST TENNESSEE

CITY           SKY/WX    TMP DP  RH WIND       PRES   REMARKS
KNOXVILLE      PTCLDY    85  71  63 NW6       30.06R HX  90
OAK RIDGE      CLEAR     84  72  67 CALM      30.08
GATLINBURG     CLEAR     81  66  61 CALM      30.07R
MORRISTOWN     CLEAR     81  72  74 CALM      30.08S
JACKSBORO      CLEAR     77  73  88 CALM      30.11S
$$

TNZ083-085-099-270300-
SOUTHEAST TENNESSEE

CITY           SKY/WX    TMP DP  RH WIND       PRES   REMARKS
CHATTANOOGA    PTCLDY    84  73  69 CALM      30.06R HX  90
DAYTON         CLOUDY    81  79  94 CALM      30.05R
$$

SKY/WX REPORTED AS FAIR MEANS FEW OR NO CLOUDS BELOW
12 THOUSAND FEET.





USA.gov is the U.S. government's official web portal to all federal, state and local government web resources and services.